EW5043 Weather Reports


time (UTC)temp
F
wind
direction
speed
knots
gust
knots
rain 1hr
in
rain 24hr
in
rain mn
in
humidity
%
barometer
mb
20260903084533 71 189 2.6 0.0 0.00 0.00 0.00 100 1010.4
20260903083028 70 180 1.7 0.0 0.00 0.00 0.00 100 1010.5
20260903080003 71 186 2.6 0.0 0.00 0.00 0.00 100 1010.3
20260903074554 71 175 2.6 0.0 0.00 0.00 0.00 100 1010.2
20260903073145 71 178 2.6 0.0 0.00 0.00 0.00 100 1010.4
20260903071536 71 188 2.6 0.0 0.00 0.00 0.00 100 1010.5
20260903070127 71 214 2.6 0.0 0.00 0.00 0.00 100 1010.6
20260903064618 70 213 1.7 0.0 0.00 0.00 0.00 100 1010.7
20260903063008 70 190 2.6 0.0 0.00 0.00 0.00 100 1010.4
20260903061606 70 200 4.3 0.0 0.00 0.00 0.00 100 1010.3
20260903060049 70 175 3.5 0.0 0.00 0.00 0.00 100 1010.6
20260903054541 70 194 2.6 0.0 0.00 0.00 0.00 100 1010.4
20260903053032 71 184 3.5 0.0 0.00 0.00 0.00 100 1010.3
20260903051523 70 198 3.5 0.0 0.00 0.00 0.00 100 1010.2
20260903050013 71 185 4.3 0.0 0.00 0.00 0.00 100 1010.2
20260903044606 71 182 3.5 0.0 0.00 0.00 0.00 100 1009.9
20260903043057 71 178 1.7 0.0 0.00 0.00 0.00 100 1010.0
20260903041550 71 178 0.9 0.0 0.00 0.00 0.00 100 1010.1
20260903040040 71 212 0.0 0.0 0.00 0.00 0.00 100 1010.3
20260903034541 71 212 0.0 0.0 0.00 0.00 0.60 100 1010.4
20260903033022 71 212 0.0 0.0 0.00 0.00 0.60 100 1010.5
20260903031512 71 212 0.9 0.0 0.00 0.00 0.60 100 1010.4
20260903030104 71 212 0.9 0.0 0.00 0.00 0.60 100 1010.4
20260903024555 72 178 3.5 0.0 0.00 0.00 0.60 100 1010.3
20260903023058 72 213 3.5 0.0 0.00 0.00 0.60 100 1009.6
20260903021538 72 215 5.2 0.0 0.00 0.00 0.60 100 1009.2
20260903020046 73 223 6.1 0.0 0.00 0.00 0.60 100 1009.1
20260903014519 73 186 3.5 0.0 0.00 0.00 0.60 100 1009.9
20260903013111 73 205 5.2 0.0 0.00 0.00 0.60 100 1009.8
20260903011501 73 209 3.5 0.0 0.00 0.00 0.57 100 1010.4
20260903010154 74 211 5.2 0.0 0.00 0.00 0.55 100 1010.1
20260903003034 77 241 3.5 0.0 0.00 0.00 0.53 100 1010.7
20260903001625 78 219 3.5 0.0 0.00 0.00 0.45 100 1011.2
20260903000016 79 249 5.2 0.0 0.00 0.00 0.43 100 1010.3
20260902234514 78 219 4.3 0.0 0.00 0.00 0.42 100 1009.6
20260902233058 79 181 4.3 0.0 0.00 0.00 0.41 100 1009.7
20260902231549 80 174 1.7 0.0 0.00 0.00 0.41 100 1009.8
20260902230042 81 178 2.6 0.0 0.00 0.00 0.41 100 1010.2
20260902224630 81 182 1.7 0.0 0.00 0.00 0.41 100 1009.9
20260902223028 81 168 2.6 0.0 0.00 0.00 0.41 100 1009.5
20260902221517 81 178 2.6 0.0 0.00 0.00 0.41 100 1009.4
20260902220005 81 205 4.3 0.0 0.00 0.00 0.41 100 1009.3
20260902214554 81 185 7.8 0.0 0.00 0.00 0.41 100 1009.5
20260902213146 81 184 10.4 0.0 0.00 0.00 0.41 100 1009.6
20260902211536 82 180 3.5 0.0 0.00 0.00 0.41 100 1010.8
20260902210026 82 180 1.7 0.0 0.00 0.00 0.41 100 1011.5
20260902204517 83 206 0.9 0.0 0.00 0.00 0.41 100 1012.0
20260902203008 83 242 1.7 0.0 0.00 0.00 0.41 100 1012.0
20260902201606 83 213 3.5 0.0 0.00 0.00 0.41 100 1011.8
20260902200050 83 188 5.2 0.0 0.00 0.00 0.41 100 1011.5
20260902194542 83 223 4.3 0.0 0.00 0.00 0.41 100 1011.6
20260902193033 82 202 5.2 0.0 0.00 0.00 0.41 100 1011.1
20260902191626 82 194 7.0 0.0 0.00 0.00 0.41 100 1011.3
20260902190020 82 178 5.2 0.0 0.00 0.00 0.41 100 1011.3
20260902184507 82 186 5.2 0.0 0.00 0.00 0.41 100 1011.5
20260902183057 81 176 7.0 0.0 0.00 0.00 0.41 100 1011.5
20260902181554 81 189 5.2 0.0 0.00 0.00 0.41 100 1011.9
20260902180039 81 188 5.2 0.0 0.00 0.00 0.41 100 1012.2
20260902174531 80 160 7.0 0.0 0.00 0.00 0.41 100 1012.1
20260902173038 79 214 6.1 0.0 0.00 0.00 0.41 100 1012.0
20260902171613 78 184 7.8 0.0 0.00 0.00 0.41 100 1012.0
20260902170002 78 231 7.0 0.0 0.00 0.00 0.41 100 1012.3
20260902164656 78 200 7.0 0.0 0.00 0.00 0.41 100 1012.5
20260902163045 76 188 7.0 0.0 0.00 0.00 0.41 100 1012.6
20260902161536 75 206 10.4 0.0 0.00 0.00 0.41 100 1012.4
20260902160129 74 188 11.3 0.0 0.00 0.00 0.41 100 1012.2
20260902154518 73 184 9.6 0.0 0.00 0.00 0.41 100 1012.1
20260902153011 71 192 14.8 0.0 0.00 0.00 0.41 100 1012.2
20260902151606 70 192 13.0 0.0 0.00 0.00 0.40 100 1012.6
20260902150050 70 188 12.2 0.0 0.00 0.00 0.39 100 1013.4
20260902144541 70 167 7.0 0.0 0.00 0.00 0.37 100 1013.2
20260902143033 70 173 2.6 0.0 0.00 0.00 0.32 100 1014.3
20260902141522 70 176 0.9 0.0 0.00 0.00 0.25 100 1014.7
20260902140012 70 228 1.7 0.0 0.00 0.00 0.16 100 1015.5
20260902134603 70 181 3.5 0.0 0.00 0.00 0.10 100 1015.4
20260902133155 70 180 7.0 0.0 0.00 0.00 0.09 100 1013.8
20260902131546 70 171 8.7 0.0 0.00 0.00 0.06 100 1014.2
20260902130035 70 177 6.1 0.0 0.00 0.00 0.02 100 1014.2
20260902124627 70 180 6.1 0.0 0.00 0.00 0.01 100 1014.6
20260902123117 70 174 8.7 0.0 0.00 0.00 0.01 100 1013.8
20260902121508 70 155 6.1 0.0 0.00 0.00 0.00 100 1014.0
20260902120058 70 186 7.8 0.0 0.00 0.00 0.00 100 1013.9
20260902114553 70 184 8.7 0.0 0.00 0.00 0.00 100 1013.0
20260902113040 70 182 8.7 0.0 0.00 0.00 0.00 100 1012.9
20260902111632 69 183 8.7 0.0 0.00 0.00 0.00 100 1012.7
20260902110047 69 178 10.4 0.0 0.00 0.00 0.00 100 1012.5
20260902104510 69 190 9.6 0.0 0.00 0.00 0.00 100 1012.6
20260902103103 69 182 9.6 0.0 0.00 0.00 0.00 100 1012.3
20260902101553 69 188 9.6 0.0 0.00 0.00 0.00 100 1012.6
20260902100044 69 211 9.6 0.0 0.00 0.00 0.00 100 1013.1
20260902094635 69 185 9.6 0.0 0.00 0.00 0.00 100 1013.1
20260902093025 68 180 9.6 0.0 0.00 0.00 0.00 100 1013.3
20260902091516 68 174 9.6 0.0 0.00 0.00 0.00 100 1013.4
20260902090007 68 188 8.7 0.0 0.00 0.00 0.00 100 1013.3
20260902084658 69 178 8.7 0.0 0.00 0.00 0.00 100 1013.4